Time,TemperatureF,DewpointF,PressureIn,WindDirection,WindDirectionDegrees,WindSpeedMPH,WindSpeedGustMPH,Humidity,HourlyPrecipIn,Conditions,Clouds,dailyrainin,SoftwareType,DateUTC
2014-01-17 00:03:00,70.5,70.0,29.94,ESE,121,0.7,5.8,98,0.00,,,0.00,WSDL version 420,2014-01-16 13:03:00,
2014-01-17 00:08:00,70.5,70.2,29.94,ENE,75,3.4,6.5,99,0.00,,,0.00,WSDL version 420,2014-01-16 13:08:00,
2014-01-17 00:13:00,70.5,70.2,29.94,ESE,108,2.6,7.2,99,0.00,,,0.00,WSDL version 420,2014-01-16 13:13:00,
2014-01-17 00:18:00,70.5,70.4,29.94,NE,53,3.8,7.6,100,0.00,,,0.00,WSDL version 420,2014-01-16 13:18:00,
2014-01-17 00:23:00,70.5,70.5,29.94,East,90,4.3,8.1,100,-99.99,,,-99.99,WSDL version 420,2014-01-16 13:23:00,
2014-01-17 00:28:00,70.5,70.4,29.94,East,90,2.8,8.1,99,0.00,,,0.00,WSDL version 420,2014-01-16 13:28:00,
2014-01-17 00:33:00,70.5,70.5,29.97,East,80,3.7,5.8,100,0.00,,,0.00,WSDL version 420,2014-01-16 13:33:00,
2014-01-17 00:38:00,70.5,70.5,29.97,East,95,2.4,5.8,100,0.00,,,0.00,WSDL version 420,2014-01-16 13:38:00,
2014-01-17 00:43:00,70.3,70.3,29.97,ESE,116,2.2,5.8,100,0.00,,,0.00,WSDL version 420,2014-01-16 13:43:00,
2014-01-17 00:48:00,70.3,70.3,29.97,ESE,103,2.6,6.5,100,0.00,,,0.00,WSDL version 420,2014-01-16 13:48:00,
2014-01-17 00:53:00,70.1,70.1,29.97,East,80,1.9,6.5,100,0.00,,,0.00,WSDL version 420,2014-01-16 13:53:00,
2014-01-17 00:58:00,69.9,69.9,29.97,East,96,3.1,5.8,100,0.00,,,0.00,WSDL version 420,2014-01-16 13:58:00,
2014-01-17 01:03:00,69.8,69.8,29.94,ENE,59,2.1,5.8,100,0.00,,,0.00,WSDL version 420,2014-01-16 14:03:00,
2014-01-17 01:08:00,69.8,69.8,29.94,SSW,199,1.9,4.7,100,0.00,,,0.00,WSDL version 420,2014-01-16 14:08:00,
2014-01-17 01:13:00,69.8,69.8,29.94,NE,42,3.2,5.4,100,0.00,,,0.00,WSDL version 420,2014-01-16 14:13:00,
2014-01-17 01:18:00,69.8,69.8,29.94,NE,51,4.0,7.6,100,0.00,,,0.00,WSDL version 420,2014-01-16 14:18:00,
2014-01-17 01:23:00,69.8,69.8,29.94,NNE,31,1.8,7.6,100,0.00,,,0.00,WSDL version 420,2014-01-16 14:23:00,
2014-01-17 01:28:00,69.8,69.8,29.94,ESE,105,2.4,4.0,100,0.00,,,0.00,WSDL version 420,2014-01-16 14:28:00,
2014-01-17 01:33:00,69.8,69.8,29.94,East,87,1.7,4.0,100,0.00,,,0.00,WSDL version 420,2014-01-16 14:33:00,
2014-01-17 01:38:00,69.8,69.8,29.94,East,79,3.9,7.6,100,0.00,,,0.00,WSDL version 420,2014-01-16 14:38:00,
2014-01-17 01:43:00,69.8,69.8,29.94,ENE,70,3.7,7.6,100,0.00,,,0.00,WSDL version 420,2014-01-16 14:43:00,
2014-01-17 01:48:00,69.9,69.9,29.94,NE,41,2.9,7.6,100,0.00,,,0.00,WSDL version 420,2014-01-16 14:48:00,
2014-01-17 01:53:00,70.0,70.0,-100.00,NNE,25,2.7,7.6,100,0.00,,,0.00,WSDL version 420,2014-01-16 14:53:00,
2014-01-17 01:58:00,70.0,70.0,29.94,SSE,148,2.5,6.5,100,0.00,,,0.00,WSDL version 420,2014-01-16 14:58:00,
2014-01-17 02:03:00,69.9,69.9,29.94,ESE,106,2.8,6.5,100,0.00,,,0.00,WSDL version 420,2014-01-16 15:03:00,
2014-01-17 02:08:00,69.8,69.8,29.94,East,96,2.4,5.4,100,0.00,,,0.00,WSDL version 420,2014-01-16 15:08:00,
2014-01-17 02:13:00,69.8,69.8,29.94,East,84,3.4,6.5,100,0.00,,,0.00,WSDL version 420,2014-01-16 15:13:00,
2014-01-17 02:18:00,69.8,69.8,29.94,ESE,104,2.2,6.5,100,0.00,,,0.00,WSDL version 420,2014-01-16 15:18:00,
2014-01-17 02:23:00,69.7,69.7,29.94,East,84,3.1,5.4,100,0.00,,,0.00,WSDL version 420,2014-01-16 15:23:00,
2014-01-17 02:28:00,69.6,69.6,29.94,NE,35,2.6,6.5,100,0.00,,,0.00,WSDL version 420,2014-01-16 15:28:00,
2014-01-17 02:33:00,69.4,69.4,29.94,East,90,2.6,6.5,100,0.00,,,0.00,WSDL version 420,2014-01-16 15:33:00,
2014-01-17 02:38:00,69.3,69.3,29.94,NE,48,1.9,4.9,100,0.00,,,0.00,WSDL version 420,2014-01-16 15:38:00,
2014-01-17 02:43:00,69.3,69.3,29.94,East,84,2.6,3.8,100,0.00,,,0.00,WSDL version 420,2014-01-16 15:43:00,
2014-01-17 02:48:00,69.0,69.0,29.94,ENE,77,1.4,3.8,100,0.00,,,0.00,WSDL version 420,2014-01-16 15:48:00,
2014-01-17 02:53:00,68.8,68.8,29.94,WNW,286,1.9,3.8,100,0.00,,,0.00,WSDL version 420,2014-01-16 15:53:00,
2014-01-17 02:58:00,68.8,68.8,29.94,North,3,1.5,3.8,100,0.00,,,0.00,WSDL version 420,2014-01-16 15:58:00,
2014-01-17 03:03:00,68.7,68.7,29.91,SE,124,0.5,3.8,100,0.00,,,0.00,WSDL version 420,2014-01-16 16:03:00,
2014-01-17 03:08:00,68.5,68.4,29.91,North,356,0.4,3.1,100,0.00,,,0.00,WSDL version 420,2014-01-16 16:08:00,
2014-01-17 03:13:00,68.4,68.4,29.91,SSE,158,0.9,2.2,100,0.00,,,0.00,WSDL version 420,2014-01-16 16:13:00,
2014-01-17 03:18:00,68.2,68.2,29.91,East,98,0.8,2.2,100,0.00,,,0.00,WSDL version 420,2014-01-16 16:18:00,
2014-01-17 03:23:00,68.0,68.0,29.91,East,93,0.5,2.5,100,0.00,,,0.00,WSDL version 420,2014-01-16 16:23:00,
2014-01-17 03:28:00,68.0,68.0,29.91,ESE,109,0.5,3.8,100,0.00,,,0.00,WSDL version 420,2014-01-16 16:28:00,
2014-01-17 03:33:00,68.2,68.2,29.91,SE,131,1.8,4.0,100,0.00,,,0.00,WSDL version 420,2014-01-16 16:33:00,
2014-01-17 03:38:00,68.0,68.0,29.91,ESE,115,0.3,4.0,100,0.00,,,0.00,WSDL version 420,2014-01-16 16:38:00,
2014-01-17 03:43:00,67.9,67.9,29.91,ESE,122,0.4,4.3,100,0.00,,,0.00,WSDL version 420,2014-01-16 16:43:00,
2014-01-17 03:48:00,67.8,67.8,29.91,ESE,109,0.7,4.3,100,0.00,,,0.00,WSDL version 420,2014-01-16 16:48:00,
2014-01-17 03:53:00,67.8,67.8,29.91,ESE,121,0.6,2.9,100,0.00,,,0.00,WSDL version 420,2014-01-16 16:53:00,
2014-01-17 03:58:00,67.7,67.7,29.91,SE,124,0.0,2.9,100,-99.99,,,-99.99,WSDL version 420,2014-01-16 16:58:00,
2014-01-17 04:03:00,67.5,67.5,29.91,SE,131,0.0,2.2,100,0.00,,,0.00,WSDL version 420,2014-01-16 17:03:00,
2014-01-17 04:08:00,67.4,67.4,29.91,SE,129,0.9,2.7,100,0.00,,,0.00,WSDL version 420,2014-01-16 17:08:00,
2014-01-17 04:13:00,67.3,67.3,29.91,SE,143,1.1,2.7,100,0.00,,,0.00,WSDL version 420,2014-01-16 17:13:00,
2014-01-17 04:18:00,67.3,67.3,29.91,NNE,32,0.0,2.2,100,0.00,,,0.00,WSDL version 420,2014-01-16 17:18:00,
2014-01-17 04:23:00,67.0,67.0,29.91,ENE,60,0.0,0.9,100,0.00,,,0.00,WSDL version 420,2014-01-16 17:23:00,
2014-01-17 04:28:00,66.7,66.7,29.91,South,172,0.0,1.1,100,0.00,,,0.00,WSDL version 420,2014-01-16 17:28:00,
2014-01-17 04:33:00,66.5,66.5,29.91,SSE,158,0.0,1.1,100,0.00,,,0.00,WSDL version 420,2014-01-16 17:33:00,
2014-01-17 04:38:00,66.3,66.3,29.91,SSE,158,0.0,0.0,100,0.00,,,0.00,WSDL version 420,2014-01-16 17:38:00,
2014-01-17 04:43:00,65.9,65.9,29.91,West,266,0.0,0.0,100,0.00,,,0.00,WSDL version 420,2014-01-16 17:43:00,
2014-01-17 04:48:00,65.6,65.6,29.91,South,183,0.0,1.6,100,-99.99,,,-99.99,WSDL version 420,2014-01-16 17:48:00,
2014-01-17 04:53:00,65.4,65.4,29.91,ESE,109,0.9,2.2,100,0.00,,,0.00,WSDL version 420,2014-01-16 17:53:00,
2014-01-17 04:58:00,65.5,65.5,29.91,SE,145,0.0,2.2,100,0.00,,,0.00,WSDL version 420,2014-01-16 17:58:00,
2014-01-17 05:03:00,65.7,65.7,29.91,ESE,122,0.0,1.6,100,0.00,,,0.00,WSDL version 420,2014-01-16 18:03:00,
2014-01-17 05:08:00,65.7,65.7,29.91,SE,143,0.6,2.5,100,0.00,,,0.00,WSDL version 420,2014-01-16 18:08:00,
2014-01-17 05:13:00,66.0,66.0,29.91,SSE,154,0.3,2.5,100,0.00,,,0.00,WSDL version 420,2014-01-16 18:13:00,
2014-01-17 05:18:00,66.2,66.2,29.94,SE,145,0.0,2.0,100,0.00,,,0.00,WSDL version 420,2014-01-16 18:18:00,
2014-01-17 05:23:00,66.1,66.1,29.94,SE,132,0.0,1.6,100,0.00,,,0.00,WSDL version 420,2014-01-16 18:23:00,
2014-01-17 05:28:00,66.0,66.0,29.94,SE,129,0.0,1.6,100,0.00,,,0.00,WSDL version 420,2014-01-16 18:28:00,
2014-01-17 05:33:00,66.1,66.1,29.94,East,101,0.0,1.6,100,-99.99,,,-99.99,WSDL version 420,2014-01-16 18:33:00,
2014-01-17 05:38:00,66.3,66.3,29.94,East,80,0.9,2.5,100,0.00,,,0.00,WSDL version 420,2014-01-16 18:38:00,
2014-01-17 05:43:00,66.4,66.4,29.94,SE,124,1.0,2.5,100,0.00,,,0.00,WSDL version 420,2014-01-16 18:43:00,
2014-01-17 05:48:00,66.4,66.4,29.94,East,79,1.0,2.5,100,0.00,,,0.00,WSDL version 420,2014-01-16 18:48:00,
2014-01-17 05:53:00,66.6,66.6,29.94,East,90,0.4,2.5,100,0.00,,,0.00,WSDL version 420,2014-01-16 18:53:00,
2014-01-17 05:58:00,66.4,66.4,29.94,West,266,1.2,2.2,100,0.00,,,0.00,WSDL version 420,2014-01-16 18:58:00,
2014-01-17 06:03:00,66.2,66.2,29.94,WSW,248,1.3,2.5,100,0.00,,,0.00,WSDL version 420,2014-01-16 19:03:00,
2014-01-17 06:08:00,65.8,65.8,29.94,SW,229,0.0,2.5,100,0.00,,,0.00,WSDL version 420,2014-01-16 19:08:00,
2014-01-17 06:13:00,65.6,65.6,29.94,ESE,113,0.0,2.0,100,0.00,,,0.00,WSDL version 420,2014-01-16 19:13:00,
2014-01-17 06:18:00,65.2,65.2,29.94,SE,135,0.0,0.0,100,0.00,,,0.00,WSDL version 420,2014-01-16 19:18:00,
2014-01-17 06:23:00,65.1,65.1,29.94,SE,135,0.0,0.0,100,0.00,,,0.00,WSDL version 420,2014-01-16 19:23:00,
2014-01-17 06:28:00,64.9,64.9,29.94,SE,135,0.0,0.0,100,0.00,,,0.00,WSDL version 420,2014-01-16 19:28:00,
2014-01-17 06:33:00,64.8,64.8,29.94,SSE,154,0.0,0.0,100,0.00,,,0.00,WSDL version 420,2014-01-16 19:33:00,
2014-01-17 06:38:00,64.7,64.7,29.94,SE,135,0.0,0.0,100,0.00,,,0.00,WSDL version 420,2014-01-16 19:38:00,
2014-01-17 06:43:00,64.7,64.7,29.94,SSW,203,0.0,0.0,100,0.00,,,0.00,WSDL version 420,2014-01-16 19:43:00,
2014-01-17 06:48:00,64.6,64.6,29.94,SSW,209,0.0,0.0,100,0.00,,,0.00,WSDL version 420,2014-01-16 19:48:00,
2014-01-17 06:53:00,64.7,64.7,29.94,SSE,158,0.0,0.0,100,0.00,,,0.00,WSDL version 420,2014-01-16 19:53:00,
2014-01-17 06:58:00,64.8,64.8,29.94,SSE,158,0.0,0.0,100,0.00,,,0.00,WSDL version 420,2014-01-16 19:58:00,
2014-01-17 07:03:00,64.9,64.8,29.94,SSE,158,0.0,0.0,100,0.00,,,0.00,WSDL version 420,2014-01-16 20:03:00,
2014-01-17 07:08:00,65.1,65.1,29.94,ESE,122,0.0,0.0,100,0.00,,,0.00,WSDL version 420,2014-01-16 20:08:00,
2014-01-17 07:13:00,65.8,65.8,29.94,ESE,113,0.1,1.3,100,0.00,,,0.00,WSDL version 420,2014-01-16 20:13:00,
2014-01-17 07:18:00,66.5,66.5,29.94,East,90,0.0,1.3,100,0.00,,,0.00,WSDL version 420,2014-01-16 20:18:00,
2014-01-17 07:23:00,66.7,66.7,29.94,ESE,118,0.0,1.6,100,-99.99,,,-99.99,WSDL version 420,2014-01-16 20:23:00,
2014-01-17 07:28:00,67.8,67.8,29.94,ESE,122,0.5,1.6,100,0.00,,,0.00,WSDL version 420,2014-01-16 20:28:00,
2014-01-17 07:33:00,68.8,68.8,29.94,SE,132,0.0,1.3,100,0.00,,,0.00,WSDL version 420,2014-01-16 20:33:00,
2014-01-17 07:38:00,69.5,69.5,29.94,SE,125,0.3,1.3,100,0.00,,,0.00,WSDL version 420,2014-01-16 20:38:00,
2014-01-17 07:43:00,69.9,69.9,29.94,NW,319,0.4,2.0,100,0.00,,,0.00,WSDL version 420,2014-01-16 20:43:00,
2014-01-17 07:48:00,70.3,70.3,29.94,ENE,76,2.3,3.1,100,0.00,,,0.00,WSDL version 420,2014-01-16 20:48:00,
2014-01-17 07:53:00,70.9,70.9,29.94,North,4,1.5,3.1,100,0.00,,,0.00,WSDL version 420,2014-01-16 20:53:00,
2014-01-17 07:58:00,72.1,72.1,29.94,NE,40,2.7,4.0,100,0.00,,,0.00,WSDL version 420,2014-01-16 20:58:00,
2014-01-17 08:03:00,73.1,72.8,29.97,North,6,2.5,4.9,98,0.00,,,0.00,WSDL version 420,2014-01-16 21:03:00,
2014-01-17 08:08:00,73.9,72.5,-100.00,ESE,104,2.4,4.9,93,0.00,,,0.00,WSDL version 420,2014-01-16 21:08:00,
2014-01-17 08:13:00,74.8,71.8,29.97,NE,51,1.9,6.3,89,0.00,,,0.00,WSDL version 420,2014-01-16 21:13:00,
2014-01-17 08:18:00,75.7,71.6,29.94,NNE,17,2.8,6.3,86,-99.99,,,-99.99,WSDL version 420,2014-01-16 21:18:00,
2014-01-17 08:23:00,76.2,70.2,29.94,NE,51,4.1,9.4,81,0.00,,,0.00,WSDL version 420,2014-01-16 21:23:00,
2014-01-17 08:28:00,76.8,70.0,29.94,NE,49,2.4,9.4,79,0.00,,,0.00,WSDL version 420,2014-01-16 21:28:00,
2014-01-17 08:33:00,77.4,70.4,29.94,NE,54,2.9,5.6,79,0.00,,,0.00,WSDL version 420,2014-01-16 21:33:00,
2014-01-17 08:38:00,78.0,70.3,29.94,North,349,3.6,5.6,77,0.00,,,0.00,WSDL version 420,2014-01-16 21:38:00,
2014-01-17 08:43:00,78.8,70.9,29.94,East,87,2.5,4.3,76,0.00,,,0.00,WSDL version 420,2014-01-16 21:43:00,
2014-01-17 08:48:00,79.6,69.5,29.94,SE,131,2.8,5.4,71,0.00,,,0.00,WSDL version 420,2014-01-16 21:48:00,
2014-01-17 08:53:00,80.1,68.9,29.94,NNE,29,3.1,5.4,67,0.00,,,0.00,WSDL version 420,2014-01-16 21:53:00,
2014-01-17 08:58:00,80.5,67.0,29.94,NW,321,2.7,5.8,64,0.00,,,0.00,WSDL version 420,2014-01-16 21:58:00,
2014-01-17 09:03:00,80.9,66.6,29.97,NW,312,4.3,6.5,61,0.00,,,0.00,WSDL version 420,2014-01-16 22:03:00,
2014-01-17 09:08:00,80.8,65.8,29.97,West,276,3.4,6.5,61,-99.99,,,-99.99,WSDL version 420,2014-01-16 22:08:00,
2014-01-17 09:13:00,81.7,66.7,29.97,NW,315,2.7,6.5,60,0.00,,,0.00,WSDL version 420,2014-01-16 22:13:00,
2014-01-17 09:18:00,82.6,66.6,29.97,WSW,250,2.7,5.4,58,0.00,,,0.00,WSDL version 420,2014-01-16 22:18:00,
2014-01-17 09:23:00,82.7,66.7,29.97,East,98,3.0,5.4,59,0.00,,,0.00,WSDL version 420,2014-01-16 22:23:00,
2014-01-17 09:28:00,82.7,66.0,29.97,East,93,2.8,5.4,57,0.00,,,0.00,WSDL version 420,2014-01-16 22:28:00,
2014-01-17 09:33:00,83.3,66.8,29.97,North,357,3.5,8.1,56,0.00,,,0.00,WSDL version 420,2014-01-16 22:33:00,
2014-01-17 09:38:00,83.6,65.7,29.97,ENE,74,3.7,8.1,54,0.00,,,0.00,WSDL version 420,2014-01-16 22:38:00,
2014-01-17 09:43:00,83.2,65.2,29.97,East,79,3.3,5.8,55,0.00,,,0.00,WSDL version 420,2014-01-16 22:43:00,
2014-01-17 09:48:00,83.8,65.8,29.97,North,354,3.8,5.6,54,0.00,,,0.00,WSDL version 420,2014-01-16 22:48:00,
2014-01-17 09:53:00,84.6,65.6,29.97,North,351,2.2,5.6,53,0.00,,,0.00,WSDL version 420,2014-01-16 22:53:00,
2014-01-17 09:58:00,86.0,65.7,29.97,North,6,2.1,6.0,50,0.00,,,0.00,WSDL version 420,2014-01-16 22:58:00,
2014-01-17 10:03:00,85.7,63.8,29.97,NNE,29,2.1,6.3,48,-99.99,,,-99.99,WSDL version 420,2014-01-16 23:03:00,
2014-01-17 10:08:00,86.5,65.1,29.97,NE,51,2.4,6.3,50,0.00,,,0.00,WSDL version 420,2014-01-16 23:08:00,
2014-01-17 10:13:00,85.8,65.2,29.97,East,94,3.8,6.0,51,0.00,,,0.00,WSDL version 420,2014-01-16 23:13:00,
2014-01-17 10:18:00,85.9,65.9,29.97,East,80,3.1,6.0,51,0.00,,,0.00,WSDL version 420,2014-01-16 23:18:00,
2014-01-17 10:23:00,86.5,66.2,29.97,NE,55,3.8,7.4,51,0.00,,,0.00,WSDL version 420,2014-01-16 23:23:00,
2014-01-17 10:28:00,85.4,65.0,29.97,ENE,77,3.6,8.1,51,0.00,,,0.00,WSDL version 420,2014-01-16 23:28:00,
2014-01-17 10:33:00,84.0,64.2,29.97,East,90,4.6,8.1,52,0.00,,,0.00,WSDL version 420,2014-01-16 23:33:00,
2014-01-17 10:38:00,85.4,66.2,29.97,South,174,3.0,6.5,52,0.00,,,0.00,WSDL version 420,2014-01-16 23:38:00,
2014-01-17 10:43:00,86.6,66.0,29.97,NE,53,2.9,6.3,49,0.00,,,0.00,WSDL version 420,2014-01-16 23:43:00,
2014-01-17 10:48:00,86.4,65.7,30.00,ENE,75,3.1,4.9,51,0.00,,,0.00,WSDL version 420,2014-01-16 23:48:00,
2014-01-17 10:53:00,86.9,65.6,30.00,ENE,71,3.5,6.5,49,0.00,,,0.00,WSDL version 420,2014-01-16 23:53:00,
2014-01-17 10:58:00,86.4,64.3,30.00,East,84,3.5,6.5,47,0.00,,,0.00,WSDL version 420,2014-01-16 23:58:00,
2014-01-17 11:03:00,86.1,64.1,29.97,NNE,26,4.1,6.0,48,0.00,,,0.00,WSDL version 420,2014-01-17 00:03:00,
2014-01-17 11:08:00,86.5,63.7,29.97,ENE,77,4.5,7.4,46,0.00,,,0.00,WSDL version 420,2014-01-17 00:08:00,
2014-01-17 11:13:00,86.4,63.8,29.97,NW,321,3.3,10.1,48,0.00,,,0.00,WSDL version 420,2014-01-17 00:13:00,
2014-01-17 11:18:00,87.8,64.4,29.94,NE,39,3.9,10.1,46,0.00,,,0.00,WSDL version 420,2014-01-17 00:18:00,
2014-01-17 11:23:00,88.4,64.7,29.94,NE,49,4.0,8.1,45,0.00,,,0.00,WSDL version 420,2014-01-17 00:23:00,
2014-01-17 11:28:00,87.7,63.9,29.94,NNE,32,4.3,8.1,46,0.00,,,0.00,WSDL version 420,2014-01-17 00:28:00,
2014-01-17 11:33:00,87.3,63.6,29.94,ENE,68,3.3,8.9,46,0.00,,,0.00,WSDL version 420,2014-01-17 00:33:00,
2014-01-17 11:38:00,88.7,64.5,29.94,NE,42,3.9,8.9,44,0.00,,,0.00,WSDL version 420,2014-01-17 00:38:00,
2014-01-17 11:43:00,88.1,63.7,29.94,ENE,70,5.4,8.7,45,-99.99,,,-99.99,WSDL version 420,2014-01-17 00:43:00,
2014-01-17 11:48:00,87.9,64.4,29.94,East,90,4.6,8.7,46,0.00,,,0.00,WSDL version 420,2014-01-17 00:48:00,
2014-01-17 11:53:00,88.4,64.4,29.94,NNE,26,5.2,8.1,45,0.00,,,0.00,WSDL version 420,2014-01-17 00:53:00,
2014-01-17 11:58:00,-999.0,-99.9,29.94,East,86,5.3,8.5,-999,0.00,,,0.00,WSDL version 420,2014-01-17 00:58:00,
2014-01-17 12:03:00,87.7,63.7,29.91,ENE,74,4.0,8.5,45,0.00,,,0.00,WSDL version 420,2014-01-17 01:03:00,
2014-01-17 12:08:00,87.9,63.3,29.91,NNE,19,3.9,8.1,44,0.00,,,0.00,WSDL version 420,2014-01-17 01:08:00,
2014-01-17 12:18:00,87.9,62.6,29.91,NE,42,5.4,8.7,43,0.00,,,0.00,WSDL version 420,2014-01-17 01:18:00,
2014-01-17 12:23:00,87.9,62.6,29.91,East,90,4.4,10.3,43,0.00,,,0.00,WSDL version 420,2014-01-17 01:23:00,
2014-01-17 12:28:00,88.2,62.9,29.91,NE,51,5.1,10.3,43,0.00,,,0.00,WSDL version 420,2014-01-17 01:28:00,
2014-01-17 12:33:00,88.7,62.9,29.91,ENE,72,4.3,8.5,41,0.00,,,0.00,WSDL version 420,2014-01-17 01:33:00,
2014-01-17 12:38:00,88.8,62.4,29.91,NE,45,5.7,9.8,41,-99.99,,,-99.99,WSDL version 420,2014-01-17 01:38:00,
2014-01-17 12:43:00,88.0,62.3,29.91,NE,45,4.7,11.9,42,0.00,,,0.00,WSDL version 420,2014-01-17 01:43:00,
2014-01-17 12:48:00,87.6,62.2,29.91,East,83,5.7,17.2,43,0.00,,,0.00,WSDL version 420,2014-01-17 01:48:00,
2014-01-17 12:53:00,89.0,62.5,29.91,NE,35,6.4,17.2,41,0.00,,,0.00,WSDL version 420,2014-01-17 01:53:00,
2014-01-17 12:58:00,88.6,62.0,29.91,ENE,63,4.7,11.0,41,0.00,,,0.00,WSDL version 420,2014-01-17 01:58:00,
2014-01-17 13:03:00,88.1,62.0,29.88,NE,39,5.5,10.7,42,0.00,,,0.00,WSDL version 420,2014-01-17 02:03:00,
2014-01-17 13:08:00,90.3,63.7,29.88,NE,48,3.3,10.7,40,0.00,,,0.00,WSDL version 420,2014-01-17 02:08:00,
2014-01-17 13:13:00,90.3,62.7,29.88,NE,55,4.8,12.1,40,0.00,,,0.00,WSDL version 420,2014-01-17 02:13:00,
2014-01-17 13:18:00,90.5,62.7,29.88,ESE,122,4.9,12.1,40,0.00,,,0.00,WSDL version 420,2014-01-17 02:18:00,
2014-01-17 13:23:00,90.8,62.9,29.88,NW,312,5.1,10.5,39,0.00,,,0.00,WSDL version 420,2014-01-17 02:23:00,
2014-01-17 13:28:00,89.7,61.6,29.88,NE,53,5.0,12.3,40,0.00,,,0.00,WSDL version 420,2014-01-17 02:28:00,
2014-01-17 13:33:00,89.5,62.2,29.88,ENE,74,4.1,12.3,40,-99.99,,,-99.99,WSDL version 420,2014-01-17 02:33:00,
2014-01-17 13:38:00,90.4,62.8,29.88,ENE,74,2.9,11.0,40,0.00,,,0.00,WSDL version 420,2014-01-17 02:38:00,
2014-01-17 13:43:00,90.1,61.9,29.88,NE,34,5.5,11.0,39,0.00,,,0.00,WSDL version 420,2014-01-17 02:43:00,
2014-01-17 13:48:00,90.4,62.3,29.91,East,98,5.0,11.0,39,0.00,,,0.00,WSDL version 420,2014-01-17 02:48:00,
2014-01-17 13:53:00,89.3,61.4,29.91,NE,39,6.8,10.7,39,0.00,,,0.00,WSDL version 420,2014-01-17 02:53:00,
2014-01-17 13:58:00,90.0,62.2,29.91,ENE,68,4.8,10.7,39,0.00,,,0.00,WSDL version 420,2014-01-17 02:58:00,
2014-01-17 14:03:00,89.9,61.8,29.91,NNE,28,6.0,9.2,40,0.00,,,0.00,WSDL version 420,2014-01-17 03:03:00,
2014-01-17 14:08:00,90.0,62.4,29.91,East,79,5.1,10.7,40,0.00,,,0.00,WSDL version 420,2014-01-17 03:08:00,
2014-01-17 14:13:00,89.5,61.5,29.91,ENE,64,6.9,10.7,40,0.00,,,0.00,WSDL version 420,2014-01-17 03:13:00,
2014-01-17 14:18:00,89.6,61.9,29.91,ENE,68,7.4,11.0,40,0.00,,,0.00,WSDL version 420,2014-01-17 03:18:00,
2014-01-17 14:23:00,89.6,61.8,29.91,NE,42,7.4,11.0,40,0.00,,,0.00,WSDL version 420,2014-01-17 03:23:00,
2014-01-17 14:28:00,89.3,61.5,29.91,ENE,64,7.2,10.3,40,0.00,,,0.00,WSDL version 420,2014-01-17 03:28:00,
2014-01-17 14:33:00,89.8,61.9,29.91,NE,42,7.6,13.2,40,0.00,,,0.00,WSDL version 420,2014-01-17 03:33:00,
2014-01-17 14:38:00,88.8,61.2,29.91,East,84,8.9,14.1,40,0.00,,,0.00,WSDL version 420,2014-01-17 03:38:00,
2014-01-17 14:43:00,88.7,61.5,29.91,East,79,5.2,14.1,41,0.00,,,0.00,WSDL version 420,2014-01-17 03:43:00,
2014-01-17 14:48:00,89.0,61.9,29.91,NE,45,8.2,11.0,40,0.00,,,0.00,WSDL version 420,2014-01-17 03:48:00,
2014-01-17 14:53:00,88.5,61.3,29.91,NE,55,7.1,11.9,40,0.00,,,0.00,WSDL version 420,2014-01-17 03:53:00,
2014-01-17 14:58:00,88.3,61.7,29.91,NE,34,5.9,11.9,41,0.00,,,0.00,WSDL version 420,2014-01-17 03:58:00,
2014-01-17 15:03:00,88.8,61.6,29.91,East,86,5.6,10.7,40,0.00,,,0.00,WSDL version 420,2014-01-17 04:03:00,
2014-01-17 15:08:00,88.3,61.1,29.91,ENE,73,6.9,12.5,40,0.00,,,0.00,WSDL version 420,2014-01-17 04:08:00,
2014-01-17 15:13:00,88.7,61.5,29.91,East,79,5.5,12.5,40,0.00,,,0.00,WSDL version 420,2014-01-17 04:13:00,
2014-01-17 15:18:00,88.7,61.1,29.91,East,93,5.8,12.5,40,0.00,,,0.00,WSDL version 420,2014-01-17 04:18:00,
2014-01-17 15:23:00,89.4,61.5,29.91,NNE,17,5.5,13.0,39,0.00,,,0.00,WSDL version 420,2014-01-17 04:23:00,
2014-01-17 15:28:00,89.2,61.1,29.91,NNE,26,5.5,13.0,39,0.00,,,0.00,WSDL version 420,2014-01-17 04:28:00,
2014-01-17 15:33:00,89.6,61.4,29.88,NE,53,4.9,12.3,39,0.00,,,0.00,WSDL version 420,2014-01-17 04:33:00,
2014-01-17 15:38:00,89.6,60.7,29.88,NE,42,7.1,11.4,38,0.00,,,0.00,WSDL version 420,2014-01-17 04:38:00,
2014-01-17 15:43:00,88.0,59.9,29.88,NE,38,6.4,15.2,39,0.00,,,0.00,WSDL version 420,2014-01-17 04:43:00,
2014-01-17 15:48:00,88.6,61.0,29.88,North,11,5.0,15.2,39,0.00,,,0.00,WSDL version 420,2014-01-17 04:48:00,
2014-01-17 15:53:00,89.9,61.4,29.88,NNE,23,5.0,10.1,39,0.00,,,0.00,WSDL version 420,2014-01-17 04:53:00,
2014-01-17 15:58:00,88.8,60.3,29.88,ENE,62,6.6,11.0,39,0.00,,,0.00,WSDL version 420,2014-01-17 04:58:00,
2014-01-17 16:03:00,88.3,60.9,29.85,East,94,4.7,12.1,40,0.00,,,0.00,WSDL version 420,2014-01-17 05:03:00,
2014-01-17 16:08:00,88.3,60.8,29.85,East,79,5.8,15.2,40,-99.99,,,-99.99,WSDL version 420,2014-01-17 05:08:00,
2014-01-17 16:13:00,88.9,61.5,29.85,East,98,3.8,15.2,40,0.00,,,0.00,WSDL version 420,2014-01-17 05:13:00,
2014-01-17 16:18:00,88.3,60.9,29.83,NE,51,5.6,12.5,40,0.00,,,0.00,WSDL version 420,2014-01-17 05:18:00,
2014-01-17 16:23:00,87.8,60.7,29.83,ENE,77,6.4,12.5,40,0.00,,,0.00,WSDL version 420,2014-01-17 05:23:00,
2014-01-17 16:28:00,88.7,61.3,29.83,East,87,4.0,12.1,40,0.00,,,0.00,WSDL version 420,2014-01-17 05:28:00,
2014-01-17 16:33:00,87.8,61.0,29.83,NE,39,7.1,12.8,41,0.00,,,0.00,WSDL version 420,2014-01-17 05:33:00,
2014-01-17 16:38:00,87.0,61.2,29.83,NE,45,6.2,14.5,42,0.00,,,0.00,WSDL version 420,2014-01-17 05:38:00,
2014-01-17 16:43:00,86.7,61.2,29.83,NE,48,6.3,14.5,43,0.00,,,0.00,WSDL version 420,2014-01-17 05:43:00,
2014-01-17 16:48:00,86.6,61.9,29.85,NNE,30,5.7,12.8,44,0.00,,,0.00,WSDL version 420,2014-01-17 05:48:00,
2014-01-17 16:53:00,86.3,61.8,29.85,NE,53,6.5,14.8,44,0.00,,,0.00,WSDL version 420,2014-01-17 05:53:00,
2014-01-17 16:58:00,85.5,62.0,29.85,NE,35,5.0,14.8,46,0.00,,,0.00,WSDL version 420,2014-01-17 05:58:00,
2014-01-17 17:03:00,85.1,62.4,29.85,NE,38,8.7,16.8,47,0.00,,,0.00,WSDL version 420,2014-01-17 06:03:00,
2014-01-17 17:08:00,86.4,63.5,29.85,ESE,115,4.3,16.8,46,0.00,,,0.00,WSDL version 420,2014-01-17 06:08:00,
2014-01-17 17:13:00,86.7,63.0,29.85,NE,34,7.8,15.4,45,0.00,,,0.00,WSDL version 420,2014-01-17 06:13:00,
2014-01-17 17:18:00,85.4,62.6,29.85,East,101,6.8,15.4,47,0.00,,,0.00,WSDL version 420,2014-01-17 06:18:00,
2014-01-17 17:28:00,84.3,62.8,29.85,NE,48,8.8,14.5,49,0.00,,,0.00,WSDL version 420,2014-01-17 06:28:00,
2014-01-17 17:33:00,84.4,63.4,29.85,NE,42,5.7,14.5,49,0.00,,,0.00,WSDL version 420,2014-01-17 06:33:00,
2014-01-17 17:38:00,84.8,63.1,29.85,ENE,74,6.3,11.0,48,-99.99,,,-99.99,WSDL version 420,2014-01-17 06:38:00,
2014-01-17 17:43:00,84.9,63.2,29.85,NE,55,6.2,10.1,48,0.00,,,0.00,WSDL version 420,2014-01-17 06:43:00,
2014-01-17 17:48:00,84.6,63.1,29.85,NE,54,6.5,10.1,49,0.00,,,0.00,WSDL version 420,2014-01-17 06:48:00,
2014-01-17 17:53:00,84.4,63.2,29.85,East,90,7.2,10.5,49,0.00,,,0.00,WSDL version 420,2014-01-17 06:53:00,
2014-01-17 17:58:00,84.0,63.3,29.85,ENE,71,7.4,11.4,50,0.00,,,0.00,WSDL version 420,2014-01-17 06:58:00,
2014-01-17 18:03:00,83.4,63.0,29.85,NE,45,6.9,13.2,50,0.00,,,0.00,WSDL version 420,2014-01-17 07:03:00,
2014-01-17 18:08:00,83.3,62.7,29.85,ENE,58,6.4,14.5,50,-99.99,,,-99.99,WSDL version 420,2014-01-17 07:08:00,
2014-01-17 18:13:00,82.5,62.7,29.85,ENE,59,7.5,14.8,51,0.00,,,0.00,WSDL version 420,2014-01-17 07:13:00,
2014-01-17 18:18:00,82.1,63.0,29.85,NE,48,6.7,14.8,53,0.00,,,0.00,WSDL version 420,2014-01-17 07:18:00,
2014-01-17 18:23:00,81.8,63.0,29.85,ENE,60,8.1,14.5,53,0.00,,,0.00,WSDL version 420,2014-01-17 07:23:00,
2014-01-17 18:28:00,81.3,63.0,29.85,NE,56,7.0,15.2,54,-99.99,,,-99.99,WSDL version 420,2014-01-17 07:28:00,
2014-01-17 18:33:00,80.5,63.2,29.85,ESE,119,7.4,15.2,57,0.00,,,0.00,WSDL version 420,2014-01-17 07:33:00,
2014-01-17 18:38:00,79.4,63.2,29.85,West,259,7.6,14.1,58,0.00,,,0.00,WSDL version 420,2014-01-17 07:38:00,
2014-01-17 18:43:00,78.5,63.6,29.85,NE,38,8.6,14.5,61,0.00,,,0.00,WSDL version 420,2014-01-17 07:43:00,
2014-01-17 18:48:00,78.1,63.8,29.85,ENE,64,5.5,14.5,62,0.00,,,0.00,WSDL version 420,2014-01-17 07:48:00,
2014-01-17 18:53:00,77.9,63.6,29.85,ESE,110,5.1,13.2,61,0.00,,,0.00,WSDL version 420,2014-01-17 07:53:00,
2014-01-17 18:58:00,77.6,63.6,29.85,NE,41,6.2,10.5,62,0.00,,,0.00,WSDL version 420,2014-01-17 07:58:00,
2014-01-17 19:08:00,77.1,63.5,29.85,ENE,71,8.1,13.4,63,0.00,,,0.00,WSDL version 420,2014-01-17 08:08:00,
2014-01-17 19:13:00,76.7,63.6,29.85,East,90,7.7,13.4,64,0.00,,,0.00,WSDL version 420,2014-01-17 08:13:00,
2014-01-17 19:18:00,76.4,63.7,29.85,NE,53,6.0,13.4,65,0.00,,,0.00,WSDL version 420,2014-01-17 08:18:00,
2014-01-17 19:23:00,76.2,63.8,29.85,NE,48,7.6,13.4,66,0.00,,,0.00,WSDL version 420,2014-01-17 08:23:00,
2014-01-17 19:28:00,75.9,63.8,29.85,East,84,5.0,12.1,67,0.00,,,0.00,WSDL version 420,2014-01-17 08:28:00,
2014-01-17 19:33:00,75.6,63.8,29.85,NE,45,7.3,13.0,67,0.00,,,0.00,WSDL version 420,2014-01-17 08:33:00,
2014-01-17 19:38:00,75.4,64.1,29.85,NE,42,8.4,14.8,68,0.00,,,0.00,WSDL version 420,2014-01-17 08:38:00,
2014-01-17 19:43:00,75.1,64.1,29.85,ENE,77,5.7,14.8,69,0.00,,,0.00,WSDL version 420,2014-01-17 08:43:00,
2014-01-17 19:53:00,74.7,64.2,29.85,NE,45,4.5,8.7,70,0.00,,,0.00,WSDL version 420,2014-01-17 08:53:00,
2014-01-17 19:58:00,74.5,64.5,29.85,ENE,65,4.4,8.7,72,0.00,,,0.00,WSDL version 420,2014-01-17 08:58:00,
2014-01-17 20:03:00,74.2,64.7,29.85,ENE,76,5.0,8.7,72,0.00,,,0.00,WSDL version 420,2014-01-17 09:03:00,
2014-01-17 20:08:00,74.1,65.0,29.85,East,79,2.9,10.1,74,0.00,,,0.00,WSDL version 420,2014-01-17 09:08:00,
2014-01-17 20:13:00,73.8,65.1,29.85,ENE,68,5.7,10.1,75,-99.99,,,-99.99,WSDL version 420,2014-01-17 09:13:00,
2014-01-17 20:18:00,73.6,65.2,29.85,ENE,65,6.0,10.7,75,0.00,,,0.00,WSDL version 420,2014-01-17 09:18:00,
2014-01-17 20:23:00,73.4,65.3,29.85,East,87,5.2,10.7,76,0.00,,,0.00,WSDL version 420,2014-01-17 09:23:00,
2014-01-17 20:28:00,73.3,65.4,29.85,SE,135,3.4,13.0,76,0.00,,,0.00,WSDL version 420,2014-01-17 09:28:00,
2014-01-17 20:33:00,73.2,65.5,29.85,ENE,70,7.2,13.0,77,-99.99,,,-99.99,WSDL version 420,2014-01-17 09:33:00,
2014-01-17 20:38:00,73.0,65.4,29.85,East,79,3.8,10.5,77,0.00,,,0.00,WSDL version 420,2014-01-17 09:38:00,
2014-01-17 20:43:00,73.0,65.7,29.85,NE,45,5.1,10.7,78,0.00,,,0.00,WSDL version 420,2014-01-17 09:43:00,
2014-01-17 20:48:00,72.9,66.0,29.85,ENE,70,5.5,10.7,79,0.00,,,0.00,WSDL version 420,2014-01-17 09:48:00,
2014-01-17 20:53:00,72.9,66.0,29.85,NE,48,4.4,10.5,79,0.00,,,0.00,WSDL version 420,2014-01-17 09:53:00,
2014-01-17 20:58:00,72.7,66.2,29.85,East,94,5.0,8.7,80,0.00,,,0.00,WSDL version 420,2014-01-17 09:58:00,
2014-01-17 21:05:00,-999.0,-99.9,29.85,NE,34,3.8,10.5,-999,0.00,,,0.00,WSDL version 420,2014-01-17 10:05:00,
2014-01-17 21:10:00,72.7,66.7,29.85,East,87,3.5,10.5,82,0.00,,,0.00,WSDL version 420,2014-01-17 10:10:00,
2014-01-17 21:15:00,72.6,67.1,29.85,East,101,4.7,9.4,83,0.00,,,0.00,WSDL version 420,2014-01-17 10:15:00,
2014-01-17 21:22:00,72.5,67.3,29.85,ENE,61,4.2,7.4,84,0.00,,,0.00,WSDL version 420,2014-01-17 10:22:00,
2014-01-17 21:27:00,72.5,67.5,29.85,NE,48,4.2,7.4,84,0.00,,,0.00,WSDL version 420,2014-01-17 10:27:00,
2014-01-17 21:34:00,72.5,67.8,29.85,NE,48,4.7,8.7,86,0.00,,,0.00,WSDL version 420,2014-01-17 10:34:00,
2014-01-17 21:39:00,72.4,67.8,29.85,NE,56,5.3,8.7,86,-99.99,,,-99.99,WSDL version 420,2014-01-17 10:39:00,
2014-01-17 21:44:00,72.4,67.5,29.85,ENE,58,4.0,8.5,84,0.00,,,0.00,WSDL version 420,2014-01-17 10:44:00,
2014-01-17 21:49:00,72.3,67.4,29.85,SE,135,2.5,7.4,84,0.00,,,0.00,WSDL version 420,2014-01-17 10:49:00,
2014-01-17 21:54:00,72.1,67.3,29.85,ENE,77,2.6,7.2,86,0.00,,,0.00,WSDL version 420,2014-01-17 10:54:00,
2014-01-17 21:59:00,72.3,67.4,29.85,SSE,166,3.5,7.8,84,0.00,,,0.00,WSDL version 420,2014-01-17 10:59:00,
2014-01-17 22:04:00,72.3,67.5,29.85,NE,39,4.2,7.8,84,0.00,,,0.00,WSDL version 420,2014-01-17 11:04:00,
2014-01-17 22:09:00,72.3,67.4,29.85,NE,45,4.8,6.5,84,0.00,,,0.00,WSDL version 420,2014-01-17 11:09:00,
2014-01-17 22:14:00,72.3,67.3,29.85,NE,51,5.0,7.6,83,-99.99,,,-99.99,WSDL version 420,2014-01-17 11:14:00,
2014-01-17 22:19:00,72.3,67.1,29.83,NNE,19,3.1,7.6,84,0.00,,,0.00,WSDL version 420,2014-01-17 11:19:00,
2014-01-17 22:24:00,72.2,67.3,29.83,SE,124,3.1,6.3,84,0.00,,,0.00,WSDL version 420,2014-01-17 11:24:00,
2014-01-17 22:29:00,72.1,67.2,29.83,ENE,58,3.5,8.7,84,0.00,,,0.00,WSDL version 420,2014-01-17 11:29:00,
2014-01-17 22:34:00,72.1,67.2,29.85,ENE,68,2.6,8.7,84,-99.99,,,-99.99,WSDL version 420,2014-01-17 11:34:00,
2014-01-17 22:39:00,72.0,67.0,29.85,SE,125,3.4,7.6,84,0.00,,,0.00,WSDL version 420,2014-01-17 11:39:00,
2014-01-17 22:44:00,71.8,67.0,29.85,ESE,105,2.8,7.6,86,0.00,,,0.00,WSDL version 420,2014-01-17 11:44:00,
2014-01-17 22:49:00,71.8,67.1,29.85,NE,45,3.8,5.4,86,0.00,,,0.00,WSDL version 420,2014-01-17 11:49:00,
2014-01-17 22:54:00,71.6,67.1,29.85,NE,38,3.3,8.5,86,0.00,,,0.00,WSDL version 420,2014-01-17 11:54:00,
2014-01-17 22:59:00,71.5,67.2,29.85,NE,35,3.0,8.5,87,0.00,,,0.00,WSDL version 420,2014-01-17 11:59:00,
2014-01-17 23:04:00,71.4,67.2,29.85,NW,305,3.3,6.5,87,0.00,,,0.00,WSDL version 420,2014-01-17 12:04:00,
2014-01-17 23:09:00,71.1,66.8,29.85,West,278,1.9,6.3,87,0.00,,,0.00,WSDL version 420,2014-01-17 12:09:00,
2014-01-17 23:14:00,71.1,66.8,29.85,ESE,113,2.9,7.4,87,0.00,,,0.00,WSDL version 420,2014-01-17 12:14:00,
2014-01-17 23:19:00,71.1,66.9,29.85,NNE,16,3.9,7.6,87,0.00,,,0.00,WSDL version 420,2014-01-17 12:19:00,
2014-01-17 23:24:00,71.2,67.0,29.85,East,98,4.0,7.8,87,0.00,,,0.00,WSDL version 420,2014-01-17 12:24:00,
2014-01-17 23:29:00,71.2,67.1,29.85,NE,55,4.5,7.8,87,0.00,,,0.00,WSDL version 420,2014-01-17 12:29:00,
2014-01-17 23:39:00,71.3,66.7,29.83,East,96,2.7,8.5,86,0.00,,,0.00,WSDL version 420,2014-01-17 12:39:00,
2014-01-17 23:44:00,71.2,66.7,29.83,ESE,109,3.0,7.4,86,0.00,,,0.00,WSDL version 420,2014-01-17 12:44:00,
2014-01-17 23:49:00,71.2,66.7,29.83,East,98,3.8,8.7,86,0.00,,,0.00,WSDL version 420,2014-01-17 12:49:00,
2014-01-17 23:59:00,71.1,66.6,29.83,East,98,4.5,7.8,86,0.00,,,0.00,WSDL version 420,2014-01-17 12:59:00,